Toledo, OH

4:29 PM EST on November 23, 2017 (GMT -0500)
Toledo Express

Weather History for KTOL - December, 2012

Change the Weather History Date:

Wednesday, December 19, 2012

  Actual Average Record
Temperature  
Mean Temperature 37 °F 28 °F  
Max Temperature 42 °F 35 °F 59 °F (1895)
Min Temperature 32 °F 22 °F -8 °F (1884)
Degree Days  
Heating Degree Days 28 36  
Month to date heating degree days 475 638  
Since 1 July heating degree days 1812 1871  
Cooling Degree Days 0 0  
Month to date cooling degree days 0 0  
Year to date cooling degree days 998 793  
Moisture  
Dew Point 33 °F    
Average Humidity 85    
Maximum Humidity 100    
Minimum Humidity 70    
Precipitation  
Precipitation 0.00 in 0.09 in 0.94 in (2008)
Month to date precipitation 0.78 1.67  
Year to date precipitation 28.97 33.23  
Snow  
Snow 0.00 in 0.30 in - ()
Month to date snowfall T 4.0  
Since 1 July snowfall T 6.1  
Snow Depth 0.00 in    
Sea Level Pressure  
Sea Level Pressure 29.97 in    
Wind  
Wind Speed 3 mph (NNW)    
Max Wind Speed 14 mph    
Max Gust Speed 18 mph    
Visibility 6 miles    
Events      
T = Trace of Precipitation, MM = Missing Value Source: NWS Daily Summary

Daily Weather History Graph

Daily Weather History Graph

Search for Another Location

Airport or City:

Trip Planner

Search our weather history database for the weather conditions in past years. The results will help you decide how hot, cold, wet, or windy it might be!

Date:

Astronomy

Dec. 19, 2012 Rise Set
Actual Time 7:57 AM EST 5:07 PM EST
Civil Twilight 7:26 AM EST 5:39 PM EST
Nautical Twilight 6:51 AM EST 6:14 PM EST
Astronomical Twilight 6:17 AM EST 6:47 PM EST
Moon 12:01 PM EST (12/19) No Moon Set
Length of Visible Light 10h 12m
Length of Day
9h 09m
Waxing Crescent, 45% of the Moon is Illuminated
Dec 19
Waxing Crescent
Dec 20
First Quarter
Dec 28
Full
Jan 4
Last Quarter
Jan 11
New

Hourly Weather History & Observations

Time (EST) Temp. Windchill Dew Point Humidity Pressure Visibility Wind Dir Wind Speed Gust Speed Precip Events Conditions
12:37 AM 35.6 °F - 33.8 °F 93% 29.72 in 4.0 mi Calm Calm - 0.00 in   Overcast
12:52 AM 36.0 °F - 34.0 °F 93% 29.74 in 2.5 mi Calm Calm - 0.00 in   Overcast
1:39 AM 33.8 °F - 33.8 °F 100% 29.74 in 1.5 mi Calm Calm - N/A   Mostly Cloudy
1:52 AM 34.0 °F - 33.1 °F 96% 29.76 in 1.8 mi Calm Calm - N/A   Mostly Cloudy
1:56 AM 35.6 °F - 33.8 °F 93% 29.74 in 0.8 mi Calm Calm - N/A   Mostly Cloudy
2:34 AM 33.8 °F - 32.0 °F 93% 29.77 in 1.5 mi Calm Calm - N/A   Overcast
2:52 AM 34.0 °F - 33.1 °F 96% 29.79 in 1.5 mi Calm Calm - N/A   Overcast
3:48 AM 35.6 °F 31.7 °F 33.8 °F 93% 29.80 in 2.5 mi NW 4.6 mph - N/A   Overcast
3:52 AM 35.1 °F 32.2 °F 34.0 °F 96% 29.82 in 3.0 mi WNW 3.5 mph - N/A   Overcast
4:09 AM 35.6 °F 31.7 °F 33.8 °F 93% 29.81 in 2.5 mi West 4.6 mph - N/A   Overcast
4:52 AM 36.0 °F 33.3 °F 34.0 °F 93% 29.86 in 2.0 mi WNW 3.5 mph - N/A   Overcast
5:52 AM 36.0 °F - 35.1 °F 97% 29.87 in 2.5 mi Calm Calm - N/A   Overcast
5:59 AM 35.6 °F - 33.8 °F 93% 29.86 in 4.0 mi Calm Calm - N/A   Overcast
6:11 AM 35.6 °F - 33.8 °F 93% 29.87 in 3.0 mi Calm Calm - N/A   Overcast
6:52 AM 36.0 °F 33.3 °F 34.0 °F 93% 29.92 in 4.0 mi West 3.5 mph - N/A   Overcast
7:52 AM 37.0 °F 33.3 °F 34.0 °F 89% 29.96 in 5.0 mi WNW 4.6 mph - N/A   Overcast
8:52 AM 37.0 °F 34.5 °F 34.0 °F 89% 30.00 in 5.0 mi WNW 3.5 mph - N/A   Overcast
9:42 AM 37.4 °F 33.8 °F 33.8 °F 87% 30.00 in 6.0 mi WNW 4.6 mph - N/A   Overcast
9:52 AM 37.9 °F 34.4 °F 34.0 °F 86% 30.03 in 6.0 mi NW 4.6 mph - N/A   Overcast
10:52 AM 39.0 °F 34.8 °F 33.1 °F 79% 30.05 in 8.0 mi West 5.8 mph - N/A   Overcast
11:52 AM 39.9 °F 34.5 °F 32.0 °F 73% 30.06 in 10.0 mi North 8.1 mph - N/A   Mostly Cloudy
12:52 PM 39.9 °F 36.7 °F 33.1 °F 77% 30.06 in 10.0 mi West 4.6 mph - N/A   Mostly Cloudy
1:52 PM 39.9 °F 35.1 °F 33.1 °F 77% 30.07 in 10.0 mi NNW 6.9 mph - N/A   Overcast
2:52 PM 39.9 °F - 32.0 °F 73% 30.07 in 10.0 mi Calm Calm - N/A   Overcast
3:52 PM 41.0 °F - 32.0 °F 70% 30.09 in 10.0 mi Calm Calm - N/A   Overcast
4:52 PM 39.9 °F - 32.0 °F 73% 30.11 in 10.0 mi Calm Calm - N/A   Overcast
5:52 PM 37.9 °F 35.5 °F 32.0 °F 79% 30.11 in 10.0 mi ENE 3.5 mph - N/A   Mostly Cloudy
6:52 PM 36.0 °F - 30.9 °F 82% 30.12 in 10.0 mi Calm Calm - N/A   Overcast
7:52 PM 36.0 °F 33.3 °F 32.0 °F 86% 30.12 in 9.0 mi ENE 3.5 mph - N/A   Mostly Cloudy
8:06 PM 35.6 °F - 32.0 °F 87% 30.10 in 8.0 mi Calm Calm - N/A   Scattered Clouds
8:48 PM 33.8 °F - 30.2 °F 87% 30.11 in 7.0 mi Calm Calm - N/A   Mostly Cloudy
8:52 PM 34.0 °F 31.0 °F 30.9 °F 89% 30.12 in 7.0 mi ENE 3.5 mph - N/A   Mostly Cloudy
9:20 PM 32.0 °F 28.7 °F 30.2 °F 93% 30.10 in 7.0 mi ENE 3.5 mph - N/A   Partly Cloudy
9:52 PM 33.1 °F 30.0 °F 30.9 °F 92% 30.12 in 6.0 mi East 3.5 mph - N/A   Scattered Clouds
10:52 PM 36.0 °F 33.3 °F 32.0 °F 86% 30.12 in 7.0 mi ESE 3.5 mph - N/A   Overcast
10:59 PM 35.6 °F 30.7 °F 32.0 °F 87% 30.09 in 7.0 mi East 5.8 mph - N/A   Overcast
11:11 PM 35.6 °F 29.9 °F 32.0 °F 87% 30.08 in 7.0 mi East 6.9 mph - N/A   Overcast
11:52 PM 37.0 °F 28.9 °F 32.0 °F 82% 30.05 in 8.0 mi ENE 12.7 mph - N/A   Overcast